Date,TemperatureHighF,TemperatureAvgF,TemperatureLowF,DewpointHighF,DewpointAvgF,DewpointLowF,HumidityHigh,HumidityAvg,HumidityLow,PressureMaxIn,PressureMinIn,WindSpeedMaxMPH,WindSpeedAvgMPH,GustSpeedMaxMPH,PrecipitationSumIn
2013-3-2,28.8,27.4,25.2,13.2,13.0,12.9,60,54,51,30.22,30.19,0,0,0,0.00
2013-3-3,33.4,24.9,16.3,16.3,14.8,13.2,100,72,43,30.16,30.04,0,0,0,0.00
2013-3-4,28.9,22.1,26.6,99.9,31.9,11.2,62,59,52,30.04,30.00,0,0,0,0.00
2013-3-6,176.7,22.2,22.5,99.9,34.2,15.4,76,67,58,30.36,30.22,0,0,0,0.00
2013-3-7,35.4,19.7,13.8,99.9,30.6,6.5,72,61,53,30.39,30.34,14,11,114,0.00
2013-3-9,36.7,36.7,36.7,30.5,30.5,30.5,78,78,78,29.76,29.76,0,0,0,0.00
2013-3-10,35.8,34.0,32.2,28.6,27.5,26.4,79,77,75,29.84,29.84,0,0,0,0.00
2013-3-12,23.4,23.4,23.4,16.3,16.3,16.3,74,74,74,29.84,29.84,0,0,0,0.00
2013-3-13,32.5,25.0,19.2,14.1,11.1,8.6,64,56,44,30.32,30.22,0,0,0,0.00
2013-3-14,38.8,34.0,30.4,28.4,25.2,23.0,74,70,66,30.12,30.02,0,0,0,0.00
2013-3-15,31.3,15.6,31.3,99.9,62.4,24.9,79,78,77,29.95,29.87,0,0,0,0.00
2013-3-16,19.8,19.8,19.8,13.9,13.9,13.9,78,78,78,30.02,30.02,0,0,0,0.00
2013-3-17,29.3,24.8,20.3,12.5,10.6,8.6,60,54,49,30.25,30.05,0,0,0,0.00
2013-3-18,28.2,21.7,23.2,99.9,23.2,-21.9,75,72,63,29.95,29.61,0,0,0,0.00
2013-3-19,23.4,19.4,15.4,8.3,7.7,7.0,69,60,52,29.97,29.73,0,0,0,0.00
2013-3-20,18.1,11.6,9.0,99.9,20.9,-3.0,100,64,53,30.13,30.08,0,0,0,0.00
2013-3-21,27.1,24.9,22.6,12.2,10.9,9.6,57,55,53,30.05,30.04,0,0,0,0.00
2013-3-22,34.0,34.0,34.0,18.1,18.1,18.1,52,52,52,30.04,30.04,0,0,0,0.00
2013-3-23,37.2,26.1,19.2,22.0,15.3,11.0,70,64,54,30.13,30.06,0,0,0,0.00
2013-3-24,29.5,29.5,29.5,29.5,29.5,29.5,100,100,100,30.01,30.01,0,0,0,0.00
2013-3-26,38.5,38.5,38.5,23.6,23.6,23.6,55,55,55,30.23,30.23,0,0,0,0.00
2013-3-27,42.1,38.9,31.6,23.0,21.6,20.9,70,51,43,30.32,30.29,0,0,0,0.00
2013-3-28,41.0,31.6,22.3,24.6,19.5,14.3,71,62,52,30.34,30.34,0,0,0,0.00
2013-3-29,28.2,28.2,28.2,19.4,19.4,19.4,69,69,69,30.30,30.30,0,0,0,0.00